Location: Ferintosh
(52.7647°N, 112.9692°W)
Time: 15:29:33
(UTC+00:00)

Transit 2A - Pass Details

Date: 24 May 2024
Orbit: 592 x 959 km, 66.7° (Epoch: 23 June)

Event Time Altitude Azimuth Distance (km) Brightness Sun altitude
Rises 05:17:48 0° 186° (S) 2,930 - -11.1°
Reaches altitude 10° 05:20:10 10° 176° (S) 2,070 - -11.3°
Exits shadow 05:20:54 14° 171° (S) 1,831 7.4 -11.3°
Maximum altitude 05:24:17 31° 114° (ESE) 1,211 6.6 -11.6°
Drops below altitude 10° 05:28:48 10° 53° (NE) 2,279 8.6 -11.9°
Sets 05:31:32 0° 44° (NE) 3,277 9.5 -12.1°
